Flag for Netherlands Weather past 2 weeks in Ede, Netherlands

Now
75 °F

Light rain. Broken clouds.


Feels Like: 77 °F
Forecast: 55 / 63 °F
Wind: 8 mph from Southwest

Location: Deelen

Current Time: Jul 7, 2015 at 3:19:35 PM

Latest Report: Jul 7, 2015 at 2:55 PM


Visibility: N/A

Pressure: 29.74 "Hg

Humidity: 69%

Dew point: 64 °F

Location of EdeLocation

Historic Weather in Ede — Graph

°F

Ede temperature yesterday

Maximum temperature yesterday: 75 °F (at 4:25 PM)
Minimum temperature yesterday: 55 °F (at 5:55 AM)
Average temperature yesterday: 66 °F

Past Weeks' High & Low Weather Summary

 TemperatureHumidityPressure
High97 °F (Jul 2, 3:25 PM)100% (Jun 22, 11:55 PM)30.24 "Hg (Jun 22, 11:55 PM)
Low45 °F (Jun 23, 2:55 AM)26% (Jul 1, 4:25 PM)29.68 "Hg (Jun 22, 5:55 PM)
Average67 °F70%30.07 "Hg
* Reported Jun 22 1:25 PM — Jul 7 1:55 PM, Ede, Weather by CustomWeather, © 2015

Note: Actual official high and low records may vary slightly from our data, if they occured in-between our weather recording intervals... More about our weather records

Advertising

Ede weather history for previous 24 hours

 ConditionsComfort  
Time TempWeatherWind HumidityBarometerVisibility
1:55 PM
Tue, Jul 7
79 °FScattered clouds.7 mph51%29.77 "HgN/A
1:25 PM79 °FBroken clouds.8 mph51%29.77 "HgN/A
12:55 PM81 °FPartly sunny.7 mph45%29.77 "HgN/A
12:25 PM77 °FPartly sunny.6 mph54%29.80 "HgN/A
11:55 AM77 °FMostly cloudy.6 mph54%29.80 "HgN/A
11:25 AM79 °FPartly sunny.6 mph51%29.83 "HgN/A
10:55 AM75 °FPartly sunny.6 mph54%29.83 "HgN/A
10:25 AM73 °FOvercast.7 mph57%29.83 "HgN/A
9:55 AM73 °FOvercast.7 mph57%29.83 "HgN/A
9:25 AM72 °FOvercast.7 mph61%29.86 "HgN/A
8:55 AM72 °FOvercast.8 mph61%29.89 "HgN/A
8:25 AM72 °FOvercast.6 mph57%29.89 "HgN/A
7:55 AM68 °FScattered clouds.5 mph64%29.89 "HgN/A
7:25 AM66 °FMild.3 mph68%29.89 "HgN/A
6:55 AM63 °FPassing clouds.5 mph73%29.89 "HgN/A
6:25 AM61 °FPassing clouds.5 mph72%29.92 "HgN/A
5:55 AM59 °FCool.5 mph77%29.92 "HgN/A
5:25 AM59 °FPassing clouds.6 mph77%29.95 "HgN/A
4:55 AM59 °FPassing clouds.6 mph77%29.95 "HgN/A
4:25 AM59 °FCool.6 mph77%29.95 "HgN/A
3:55 AM59 °FCool.3 mph77%29.98 "HgN/A
3:25 AM59 °FCool.2 mph77%29.98 "HgN/A
2:55 AM61 °FCool.2 mph72%29.98 "HgN/A
2:25 AM61 °FCool.3 mph72%30.01 "HgN/A
1:55 AM59 °FCool.2 mph82%30.01 "HgN/A
1:25 AM59 °FCool.5 mph82%30.01 "HgN/A
12:55 AM59 °FCool.2 mph82%30.04 "HgN/A
12:25 AM59 °FCool.2 mph82%30.04 "HgN/A
11:55 PM
Mon, Jul 6
59 °FCool.2 mph82%30.04 "HgN/A
10:55 PM61 °FCool.2 mph83%30.04 "HgN/A
10:25 PM63 °FMild.No wind77%30.04 "HgN/A
9:55 PM64 °FPassing clouds.2 mph73%30.07 "HgN/A
9:25 PM68 °FMild.1 mph64%30.07 "HgN/A
8:55 PM73 °FMild.2 mph47%30.07 "HgN/A
8:25 PM73 °FMild.3 mph47%30.07 "HgN/A
7:55 PM73 °FPassing clouds.3 mph47%30.07 "HgN/A
7:25 PM73 °FPassing clouds.6 mph50%30.07 "HgN/A
6:55 PM73 °FMild.6 mph47%30.09 "HgN/A
6:25 PM73 °FScattered clouds.5 mph47%30.09 "HgN/A
5:55 PM72 °FScattered clouds.7 mph53%30.09 "HgN/A
5:25 PM73 °FScattered clouds.10 mph47%30.12 "HgN/A
4:55 PM73 °FPassing clouds.9 mph44%30.12 "HgN/A
4:25 PM75 °FPassing clouds.12 mph41%30.12 "HgN/A
4:00 PM73 °FPassing clouds.14 mph44%30.12 "HgN/A
3:55 PM73 °FPassing clouds.15 mph41%30.12 "HgN/A
3:25 PM73 °FPassing clouds.12 mph44%30.12 "HgN/A
Weather by CustomWeather, © 2015

See weather overviewHow to use our weather pages